Location: *
(46.4000°N, 12.6667°E)
Time: 06:03:13
(UTC+00:00)

ERBS - Pass Details

Date: 09 April 2020
Orbit: 410 x 426 km, 57.0° (Epoch: 29 May)

Event Time Altitude Azimuth Distance (km) Brightness Sun altitude
Rises 18:33:54 0° 312° (NW) 2,393 7.6 -8.2°
Reaches altitude 10° 18:36:16 10° 326° (NNW) 1,527 6.0 -8.6°
Maximum altitude 18:39:07 24° 23° (NNE) 929 4.0 -9.0°
Drops below altitude 10° 18:41:59 10° 80° (E) 1,524 4.6 -9.5°
Enters shadow 18:41:59 10° 80° (E) 1,526 4.6 -9.5°
